QPF
0.00 0.00 0.00 0.00 0.00 0.00 0.00 0.01 0.02 0.02 0.01 0.01 0.01 0.03 0.04 0.05 0.07 0.08 0.10 0.10 0.12 0.14 0.16 0.16 0.17 0.20 0.24 0.27 0.26 0.28 0.28 0.25 0.19 0.17 0.14 0.11 0.11 0.11 0.12 0.12 0.14 0.15 0.12
0.00 0.00 0.00 0.00 0.00 0.00 0.00 0.00 0.00 0.00 0.00 0.00 0.01 0.02 0.04 0.04 0.05 0.07 0.09 0.09 0.10 0.13 0.17 0.18 0.20 0.20 0.21 0.26 0.31 0.30 0.30 0.29 0.26 0.22 0.17 0.14 0.11 0.10 0.12 0.13 0.15 0.16 0.14
0.00 0.00 0.00 0.00 0.00 0.00 0.00 0.00 0.00 0.00 0.00 0.00 0.01 0.01 0.02 0.03 0.04 0.05 0.05 0.07 0.10 0.13 0.14 0.15 0.18 0.21 0.24 0.25 0.27 0.28 0.29 0.30 0.28 0.25 0.22 0.18 0.16 0.12 0.12 0.13 0.14 0.16 0.15
0.00 0.00 0.00 0.00 0.00 0.00 0.00 0.00 0.00 0.00 0.00 0.00 0.01 0.01 0.02 0.03 0.04 0.06 0.07 0.07 0.08 0.12 0.15 0.17 0.17 0.18 0.21 0.22 0.21 0.20 0.23 0.24 0.24 0.24 0.22 0.20 0.18 0.17 0.14 0.13 0.13 0.13 0.14
0.00 0.00 0.00 0.00 0.00 0.00 0.00 0.00 0.00 0.00 0.00 0.00 0.01 0.02 0.01 0.01 0.02 0.04 0.07 0.08 0.07 0.09 0.12 0.15 0.15 0.14 0.16 0.18 0.17 0.18 0.20 0.21 0.20 0.20 0.20 0.19 0.17 0.17 0.14 0.11 0.12 0.15 0.16
0.00 0.00 0.00 0.00 0.00 0.00 0.00 0.00 0.00 0.00 0.00 0.00 0.00 0.01 0.01 0.01 0.02 0.03 0.03 0.05 0.06 0.08 0.10 0.11 0.15 0.13 0.12 0.13 0.16 0.17 0.19 0.20 0.18 0.18 0.17 0.15 0.14 0.14 0.12 0.11 0.11 0.14 0.19
0.00 0.00 0.00 0.00 0.00 0.00 0.00 0.00 0.00 0.00 0.00 0.00 0.00 0.00 0.01 0.01 0.03 0.03 0.02 0.05 0.05 0.05 0.06 0.07 0.10 0.13 0.12 0.12 0.12 0.15 0.16 0.19 0.19 0.19 0.16 0.14 0.12 0.10 0.11 0.12 0.10 0.09 0.10
0.00 0.00 0.00 0.00 0.00 0.00 0.00 0.00 0.00 0.00 0.00 0.00 0.00 0.00 0.00 0.01 0.02 0.03 0.03 0.04 0.03 0.03 0.04 0.04 0.04 0.05 0.07 0.07 0.07 0.12 0.14 0.13 0.14 0.14 0.14 0.13 0.13 0.13 0.12 0.13 0.12 0.11 0.11
0.00 0.00 0.00 0.00 0.00 0.00 0.00 0.00 0.00 0.00 0.00 0.00 0.00 0.00 0.00 0.01 0.02 0.02 0.03 0.04 0.03 0.03 0.04 0.03 0.03 0.04 0.05 0.05 0.05 0.07 0.09 0.09 0.09 0.09 0.09 0.11 0.11 0.12 0.13 0.12 0.11 0.10 0.11
0.00 0.00 0.00 0.00 0.00 0.00 0.00 0.00 0.00 0.00 0.00 0.00 0.00 0.00 0.00 0.01 0.01 0.01 0.03 0.03 0.02 0.04 0.03 0.02 0.03 0.04 0.03 0.04 0.03 0.04 0.05 0.06 0.06 0.05 0.05 0.07 0.08 0.09 0.12 0.12 0.11 0.09 0.08
0.00 0.00 0.00 0.00 0.00 0.00 0.00 0.00 0.00 0.00 0.00 0.00 0.00 0.00 0.00 0.01 0.02 0.01 0.02 0.03 0.02 0.03 0.02 0.02 0.03 0.03 0.03 0.03 0.03 0.03 0.04 0.04 0.05 0.04 0.04 0.05 0.07 0.09 0.10 0.11 0.12 0.12 0.08
0.00 0.00 0.00 0.00 0.00 0.00 0.00 0.00 0.00 0.00 0.00 0.00 0.00 0.00 0.00 0.00 0.00 0.01 0.02 0.02 0.02 0.02 0.02 0.02 0.03 0.04 0.04 0.04 0.05 0.04 0.04 0.04 0.05 0.05 0.04 0.06 0.08 0.09 0.09 0.10 0.12 0.14 0.11
0.00 0.00 0.00 0.00 0.00 0.00 0.00 0.00 0.00 0.00 0.00 0.00 0.00 0.00 0.00 0.00 0.00 0.01 0.01 0.01 0.01 0.02 0.02 0.04 0.04 0.06 0.05 0.05 0.05 0.05 0.05 0.05 0.04 0.05 0.05 0.06 0.07 0.08 0.08 0.09 0.12 0.12 0.10
0.00 0.00 0.00 0.00 0.00 0.00 0.00 0.00 0.00 0.00 0.00 0.00 0.00 0.00 0.00 0.00 0.00 0.00 0.00 0.00 0.01 0.02 0.01 0.02 0.04 0.05 0.06 0.05 0.04 0.03 0.04 0.04 0.04 0.04 0.05 0.07 0.06 0.07 0.08 0.09 0.11 0.09 0.08
0.00 0.00 0.00 0.00 0.00 0.00 0.00 0.00 0.00 0.00 0.00 0.00 0.00 0.00 0.00 0.00 0.00 0.00 0.00 0.00 0.00 0.00 0.00 0.02 0.02 0.03 0.04 0.04 0.03 0.02 0.03 0.03 0.04 0.04 0.06 0.07 0.07 0.07 0.08 0.09 0.09 0.08 0.07
0.00 0.00 0.00 0.00 0.00 0.00 0.00 0.00 0.00 0.00 0.00 0.00 0.00 0.00 0.00 0.00 0.00 0.00 0.00 0.00 0.00 0.00 0.01 0.02 0.02 0.02 0.03 0.03 0.02 0.02 0.02 0.02 0.03 0.04 0.06 0.06 0.05 0.06 0.06 0.06 0.06 0.06 0.07
0.00 0.00 0.00 0.00 0.00 0.00 0.00 0.00 0.00 0.00 0.00 0.00 0.00 0.00 0.00 0.00 0.00 0.00 0.00 0.00 0.00 0.00 0.00 0.01 0.01 0.02 0.02 0.01 0.01 0.02 0.02 0.02 0.02 0.02 0.02 0.02 0.02 0.03 0.03 0.02 0.03 0.04 0.04
0.00 0.00 0.00 0.00 0.00 0.00 0.00 0.00 0.00 0.00 0.00 0.00 0.00 0.00 0.00 0.00 0.00 0.00 0.00 0.00 0.00 0.00 0.00 0.01 0.01 0.01 0.00 0.00 0.00 0.01 0.02 0.01 0.01 0.00 0.00 0.01 0.01 0.01 0.01 0.02 0.02 0.02 0.01
0.00 0.00 0.00 0.00 0.00 0.00 0.00 0.00 0.00 0.00 0.00 0.00 0.00 0.00 0.00 0.00 0.00 0.00 0.00 0.00 0.00 0.00 0.00 0.00 0.00 0.00 0.00 0.00 0.00 0.00 0.00 0.01 0.00 0.00 0.00 0.00 0.00 0.00 0.01 0.01 0.01 0.01 0.01
0.00 0.00 0.00 0.00 0.00 0.00 0.00 0.00 0.00 0.00 0.00 0.00 0.00 0.00 0.00 0.00 0.00 0.00 0.00 0.00 0.00 0.00 0.00 0.00 0.00 0.00 0.00 0.00 0.00 0.00 0.00 0.00 0.00 0.00 0.00 0.00 0.00 0.00 0.00 0.00 0.00 0.00 0.00
0.00 0.00 0.00 0.00 0.00 0.00 0.00 0.00 0.00 0.00 0.00 0.00 0.00 0.00 0.00 0.00 0.00 0.00 0.00 0.00 0.00 0.00 0.00 0.00 0.00 0.00 0.00 0.00 0.00 0.00 0.00 0.00 0.00 0.00 0.00 0.00 0.00 0.00 0.00 0.00 0.00 0.00 0.00
0.00 0.00 0.00 0.00 0.00 0.00 0.00 0.00 0.00 0.00 0.00 0.00 0.00 0.00 0.00 0.00 0.00 0.00 0.00 0.00 0.00 0.00 0.00 0.00 0.00 0.00 0.00 0.00 0.00 0.00 0.00 0.00 0.00 0.00 0.00 0.00 0.00 0.00 0.00 0.00 0.00 0.00 0.00
0.00 0.00 0.00 0.00 0.00 0.00 0.00 0.00 0.00 0.00 0.00 0.00 0.00 0.00 0.00 0.00 0.00 0.00 0.00 0.00 0.00 0.00 0.00 0.00 0.00 0.00 0.00 0.00 0.00 0.00 0.00 0.00 0.00 0.00 0.00 0.00 0.00 0.00 0.00 0.00 0.00 0.00 0.00
0.00 0.00 0.00 0.00 0.00 0.00 0.00 0.00 0.00 0.00 0.00 0.00 0.00 0.00 0.00 0.00 0.00 0.00 0.00 0.00 0.00 0.00 0.00 0.00 0.00 0.00 0.00 0.00 0.00 0.00 0.00 0.00 0.00 0.00 0.00 0.00 0.00 0.00 0.00 0.00 0.00 0.00 0.00
0.00 0.00 0.00 0.00 0.00 0.00 0.00 0.00 0.00 0.00 0.00 0.00 0.00 0.00 0.00 0.00 0.00 0.00 0.00 0.00 0.00 0.00 0.00 0.00 0.00 0.00 0.00 0.00 0.00 0.00 0.00 0.00 0.00 0.00 0.00 0.00 0.00 0.00 0.00 0.00 0.00 0.00 0.00
0.00 0.00 0.00 0.00 0.00 0.00 0.00 0.00 0.00 0.00 0.00 0.00 0.00 0.00 0.00 0.00 0.00 0.00 0.00 0.00 0.00 0.00 0.00 0.00 0.00 0.00 0.00 0.00 0.00 0.00 0.00 0.00 0.00 0.00 0.00 0.00 0.00 0.00 0.00 0.00 0.00 0.00 0.00
MSLP
1016.94 1016.99 1017.05 1017.05 1016.97 1016.77 1016.47 1016.08 1015.63 1015.16 1014.67 1014.19 1013.70 1013.18 1012.64 1012.04 1011.40 1010.72 1010.05 1009.42 1008.87 1008.46 1008.20 1008.12 1008.22 1008.46 1008.83 1009.28 1009.78 1010.29 1010.79 1011.27 1011.71 1012.12 1012.49 1012.84 1013.18 1013.51 1013.85 1014.21 1014.60 1015.03 1015.51
1016.78 1016.85 1016.92 1016.94 1016.87 1016.70 1016.44 1016.10 1015.70 1015.28 1014.84 1014.39 1013.92 1013.41 1012.86 1012.24 1011.56 1010.83 1010.10 1009.39 1008.77 1008.26 1007.92 1007.75 1007.76 1007.93 1008.23 1008.65 1009.13 1009.65 1010.17 1010.68 1011.17 1011.63 1012.06 1012.47 1012.86 1013.24 1013.63 1014.03 1014.46 1014.92 1015.42
1016.60 1016.68 1016.75 1016.77 1016.71 1016.56 1016.32 1016.02 1015.66 1015.29 1014.89 1014.48 1014.04 1013.55 1013.00 1012.38 1011.69 1010.95 1010.18 1009.45 1008.78 1008.24 1007.84 1007.62 1007.57 1007.68 1007.94 1008.31 1008.76 1009.25 1009.76 1010.27 1010.77 1011.25 1011.71 1012.15 1012.57 1012.99 1013.42 1013.86 1014.33 1014.83 1015.37
1016.43 1016.51 1016.58 1016.58 1016.52 1016.37 1016.14 1015.87 1015.55 1015.22 1014.87 1014.49 1014.09 1013.63 1013.10 1012.49 1011.80 1011.07 1010.31 1009.58 1008.91 1008.36 1007.96 1007.71 1007.64 1007.72 1007.93 1008.25 1008.65 1009.10 1009.57 1010.04 1010.51 1010.97 1011.42 1011.86 1012.30 1012.75 1013.20 1013.69 1014.20 1014.74 1015.32
1016.29 1016.37 1016.41 1016.40 1016.32 1016.16 1015.95 1015.69 1015.41 1015.12 1014.81 1014.48 1014.11 1013.68 1013.17 1012.58 1011.92 1011.21 1010.48 1009.78 1009.15 1008.62 1008.24 1008.00 1007.92 1007.98 1008.16 1008.44 1008.78 1009.15 1009.55 1009.96 1010.37 1010.78 1011.20 1011.62 1012.05 1012.51 1012.99 1013.50 1014.05 1014.64 1015.27
1016.18 1016.25 1016.28 1016.24 1016.14 1015.98 1015.78 1015.54 1015.30 1015.05 1014.78 1014.49 1014.16 1013.76 1013.28 1012.72 1012.08 1011.40 1010.71 1010.05 1009.46 1008.98 1008.64 1008.43 1008.36 1008.41 1008.56 1008.78 1009.05 1009.35 1009.66 1009.98 1010.31 1010.66 1011.02 1011.40 1011.82 1012.28 1012.77 1013.31 1013.90 1014.54 1015.21
1016.12 1016.17 1016.17 1016.11 1016.00 1015.84 1015.65 1015.45 1015.24 1015.04 1014.82 1014.57 1014.27 1013.90 1013.45 1012.91 1012.30 1011.65 1011.00 1010.38 1009.84 1009.41 1009.10 1008.92 1008.86 1008.90 1009.02 1009.19 1009.39 1009.61 1009.83 1010.06 1010.31 1010.58 1010.88 1011.22 1011.62 1012.07 1012.58 1013.14 1013.77 1014.44 1015.15
1016.06 1016.10 1016.08 1016.00 1015.88 1015.73 1015.57 1015.40 1015.25 1015.10 1014.93 1014.73 1014.46 1014.12 1013.68 1013.16 1012.57 1011.95 1011.32 1010.74 1010.24 1009.85 1009.57 1009.42 1009.36 1009.39 1009.48 1009.60 1009.73 1009.87 1010.01 1010.16 1010.32 1010.52 1010.77 1011.08 1011.46 1011.91 1012.43 1013.01 1013.66 1014.36 1015.10
1015.97 1015.99 1015.96 1015.87 1015.76 1015.63 1015.50 1015.39 1015.29 1015.20 1015.08 1014.92 1014.69 1014.37 1013.95 1013.44 1012.87 1012.26 1011.66 1011.11 1010.64 1010.27 1010.02 1009.87 1009.82 1009.84 1009.89 1009.96 1010.03 1010.10 1010.17 1010.25 1010.35 1010.50 1010.71 1011.00 1011.36 1011.81 1012.34 1012.94 1013.60 1014.32 1015.08
1015.80 1015.81 1015.77 1015.69 1015.60 1015.50 1015.42 1015.36 1015.32 1015.28 1015.22 1015.10 1014.89 1014.59 1014.19 1013.70 1013.14 1012.55 1011.97 1011.44 1011.00 1010.65 1010.42 1010.28 1010.22 1010.22 1010.24 1010.27 1010.29 1010.30 1010.31 1010.34 1010.40 1010.51 1010.70 1010.98 1011.34 1011.79 1012.32 1012.93 1013.60 1014.32 1015.07
1015.53 1015.53 1015.49 1015.43 1015.36 1015.31 1015.28 1015.28 1015.29 1015.30 1015.28 1015.19 1015.02 1014.74 1014.35 1013.88 1013.34 1012.77 1012.22 1011.72 1011.30 1010.99 1010.77 1010.64 1010.58 1010.55 1010.55 1010.54 1010.52 1010.49 1010.46 1010.45 1010.48 1010.58 1010.76 1011.03 1011.39 1011.84 1012.38 1012.98 1013.64 1014.35 1015.08
1015.12 1015.13 1015.11 1015.07 1015.04 1015.03 1015.06 1015.11 1015.17 1015.22 1015.23 1015.17 1015.02 1014.76 1014.40 1013.95 1013.44 1012.91 1012.40 1011.94 1011.56 1011.27 1011.08 1010.96 1010.90 1010.86 1010.83 1010.80 1010.75 1010.69 1010.63 1010.60 1010.62 1010.71 1010.88 1011.15 1011.52 1011.97 1012.50 1013.09 1013.73 1014.40 1015.10
1014.60 1014.62 1014.62 1014.62 1014.64 1014.68 1014.75 1014.84 1014.94 1015.02 1015.06 1015.02 1014.88 1014.64 1014.31 1013.89 1013.43 1012.95 1012.50 1012.10 1011.77 1011.53 1011.37 1011.27 1011.21 1011.17 1011.13 1011.07 1011.00 1010.92 1010.85 1010.81 1010.82 1010.90 1011.08 1011.35 1011.71 1012.16 1012.67 1013.24 1013.85 1014.48 1015.13
1013.99 1014.03 1014.06 1014.10 1014.17 1014.26 1014.37 1014.50 1014.63 1014.72 1014.77 1014.74 1014.62 1014.40 1014.10 1013.73 1013.33 1012.92 1012.53 1012.20 1011.94 1011.75 1011.63 1011.56 1011.52 1011.48 1011.43 1011.37 1011.28 1011.19 1011.11 1011.07 1011.08 1011.17 1011.35 1011.62 1011.98 1012.41 1012.90 1013.44 1014.00 1014.59 1015.18
1013.31 1013.38 1013.45 1013.54 1013.65 1013.78 1013.94 1014.10 1014.24 1014.35 1014.40 1014.38 1014.27 1014.08 1013.82 1013.50 1013.16 1012.83 1012.52 1012.27 1012.08 1011.95 1011.88 1011.84 1011.81 1011.78 1011.73 1011.66 1011.58 1011.49 1011.41 1011.37 1011.39 1011.49 1011.67 1011.95 1012.30 1012.72 1013.19 1013.69 1014.21 1014.74 1015.28
1012.60 1012.69 1012.80 1012.93 1013.09 1013.27 1013.46 1013.64 1013.80 1013.91 1013.97 1013.96 1013.87 1013.71 1013.49 1013.23 1012.96 1012.71 1012.48 1012.31 1012.18 1012.11 1012.08 1012.07 1012.06 1012.04 1012.00 1011.93 1011.85 1011.77 1011.71 1011.69 1011.73 1011.85 1012.04 1012.32 1012.67 1013.08 1013.53 1014.00 1014.48 1014.96 1015.44
1011.87 1011.98 1012.12 1012.29 1012.48 1012.70 1012.91 1013.12 1013.29 1013.42 1013.49 1013.49 1013.43 1013.30 1013.14 1012.94 1012.75 1012.56 1012.41 1012.30 1012.24 1012.21 1012.21 1012.22 1012.22 1012.21 1012.18 1012.13 1012.07 1012.01 1011.98 1011.99 1012.06 1012.21 1012.42 1012.72 1013.07 1013.47 1013.91 1014.35 1014.80 1015.25 1015.68
1011.13 1011.24 1011.39 1011.58 1011.80 1012.04 1012.28 1012.50 1012.69 1012.84 1012.93 1012.97 1012.94 1012.87 1012.76 1012.63 1012.50 1012.39 1012.30 1012.25 1012.22 1012.22 1012.24 1012.26 1012.27 1012.26 1012.25 1012.21 1012.18 1012.16 1012.17 1012.23 1012.35 1012.53 1012.78 1013.10 1013.47 1013.87 1014.30 1014.73 1015.15 1015.57 1015.97
1010.40 1010.48 1010.61 1010.80 1011.02 1011.27 1011.52 1011.76 1011.98 1012.15 1012.27 1012.35 1012.38 1012.36 1012.32 1012.27 1012.21 1012.16 1012.12 1012.11 1012.11 1012.13 1012.15 1012.17 1012.18 1012.18 1012.18 1012.17 1012.18 1012.20 1012.27 1012.38 1012.55 1012.79 1013.08 1013.43 1013.82 1014.23 1014.65 1015.08 1015.49 1015.88 1016.25
1009.71 1009.72 1009.80 1009.96 1010.16 1010.39 1010.64 1010.88 1011.11 1011.31 1011.48 1011.61 1011.70 1011.76 1011.80 1011.82 1011.83 1011.84 1011.85 1011.87 1011.89 1011.91 1011.93 1011.95 1011.96 1011.97 1011.98 1012.01 1012.05 1012.13 1012.25 1012.43 1012.66 1012.95 1013.28 1013.66 1014.07 1014.49 1014.92 1015.33 1015.73 1016.11 1016.47
1009.09 1009.00 1009.01 1009.09 1009.23 1009.42 1009.64 1009.88 1010.11 1010.34 1010.55 1010.74 1010.90 1011.04 1011.15 1011.25 1011.34 1011.41 1011.46 1011.51 1011.55 1011.58 1011.59 1011.61 1011.62 1011.64 1011.68 1011.73 1011.82 1011.95 1012.13 1012.37 1012.65 1012.98 1013.35 1013.76 1014.18 1014.61 1015.03 1015.44 1015.83 1016.20 1016.54
1008.61 1008.41 1008.30 1008.27 1008.33 1008.44 1008.61 1008.81 1009.03 1009.26 1009.50 1009.74 1009.96 1010.18 1010.37 1010.55 1010.70 1010.83 1010.94 1011.02 1011.08 1011.12 1011.15 1011.17 1011.20 1011.23 1011.29 1011.39 1011.52 1011.70 1011.92 1012.20 1012.53 1012.89 1013.28 1013.70 1014.12 1014.54 1014.96 1015.35 1015.73 1016.10 1016.44
1008.36 1008.01 1007.76 1007.61 1007.55 1007.56 1007.63 1007.77 1007.94 1008.16 1008.40 1008.66 1008.93 1009.20 1009.45 1009.70 1009.91 1010.10 1010.26 1010.38 1010.47 1010.54 1010.60 1010.64 1010.70 1010.76 1010.86 1010.98 1011.16 1011.38 1011.64 1011.94 1012.29 1012.66 1013.06 1013.47 1013.88 1014.29 1014.68 1015.06 1015.43 1015.79 1016.13
1008.36 1007.88 1007.49 1007.20 1006.99 1006.87 1006.83 1006.87 1006.97 1007.12 1007.33 1007.58 1007.85 1008.14 1008.43 1008.71 1008.98 1009.21 1009.42 1009.58 1009.72 1009.84 1009.93 1010.02 1010.12 1010.23 1010.37 1010.54 1010.75 1010.99 1011.28 1011.60 1011.95 1012.32 1012.70 1013.09 1013.48 1013.86 1014.23 1014.60 1014.96 1015.31 1015.65
1008.63 1008.03 1007.52 1007.08 1006.74 1006.47 1006.29 1006.20 1006.18 1006.24 1006.37 1006.55 1006.78 1007.05 1007.34 1007.62 1007.91 1008.17 1008.41 1008.62 1008.81 1008.98 1009.13 1009.28 1009.43 1009.60 1009.79 1010.02 1010.26 1010.54 1010.85 1011.17 1011.51 1011.87 1012.23 1012.59 1012.95 1013.30 1013.66 1014.01 1014.36 1014.71 1015.05
1009.13 1008.45 1007.83 1007.27 1006.79 1006.38 1006.05 1005.81 1005.65 1005.57 1005.57 1005.64 1005.78 1005.97 1006.20 1006.45 1006.72 1006.98 1007.24 1007.48 1007.71 1007.94 1008.16 1008.38 1008.60 1008.85 1009.10 1009.38 1009.67 1009.98 1010.30 1010.64 1010.97 1011.31 1011.65 1011.98 1012.32 1012.66 1013.00 1013.35 1013.70 1014.06 1014.41
Thickness
5644 5641 5638 5635 5634 5632 5630 5629 5629 5629 5630 5631 5632 5634 5636 5639 5642 5646 5649 5653 5658 5662 5667 5671 5675 5679 5683 5686 5688 5691 5693 5694 5693 5696 5699 5702 5705 5707 5709 5710 5710 5710 5710
5646 5642 5639 5636 5634 5631 5630 5628 5627 5627 5627 5627 5628 5629 5631 5634 5636 5639 5642 5645 5649 5654 5658 5663 5667 5671 5675 5679 5681 5685 5687 5689 5690 5690 5691 5694 5698 5700 5702 5703 5704 5704 5704
5648 5644 5640 5637 5634 5631 5629 5628 5626 5625 5624 5624 5624 5625 5626 5628 5631 5633 5636 5639 5642 5646 5650 5654 5658 5663 5667 5671 5675 5678 5681 5683 5685 5686 5686 5688 5690 5693 5694 5695 5696 5696 5696
5651 5646 5642 5638 5634 5632 5629 5627 5625 5623 5622 5620 5620 5620 5621 5623 5625 5627 5630 5633 5636 5640 5643 5647 5651 5655 5659 5663 5667 5671 5674 5677 5678 5679 5680 5682 5683 5685 5687 5687 5687 5688 5688
5654 5649 5644 5640 5636 5633 5630 5627 5624 5622 5620 5618 5616 5616 5617 5619 5621 5622 5624 5627 5630 5633 5636 5640 5644 5648 5653 5657 5660 5664 5668 5670 5672 5672 5674 5675 5677 5679 5680 5681 5681 5681 5679
5657 5652 5647 5642 5638 5634 5630 5626 5623 5621 5618 5616 5614 5612 5612 5613 5616 5618 5619 5620 5623 5625 5628 5632 5637 5641 5646 5650 5654 5658 5662 5664 5665 5667 5669 5671 5673 5675 5676 5676 5675 5673 5671
5660 5655 5650 5644 5639 5635 5631 5627 5623 5619 5616 5613 5611 5609 5608 5608 5610 5612 5613 5613 5614 5617 5621 5625 5630 5634 5638 5642 5646 5651 5655 5659 5661 5663 5665 5667 5670 5672 5672 5670 5669 5669 5667
5662 5657 5652 5646 5641 5636 5631 5627 5623 5619 5615 5612 5609 5606 5604 5604 5605 5605 5605 5605 5607 5610 5614 5617 5621 5625 5630 5634 5638 5642 5646 5649 5654 5657 5661 5664 5667 5668 5668 5667 5664 5660 5657
5664 5659 5654 5649 5643 5638 5632 5628 5624 5619 5615 5611 5607 5604 5600 5599 5599 5600 5599 5598 5600 5602 5606 5610 5615 5619 5624 5628 5632 5635 5638 5642 5647 5651 5655 5658 5660 5661 5661 5659 5656 5654 5649
5666 5662 5657 5651 5645 5640 5634 5629 5624 5620 5615 5611 5607 5602 5598 5595 5595 5595 5594 5592 5593 5596 5600 5604 5609 5614 5619 5623 5626 5629 5632 5635 5640 5643 5646 5649 5651 5652 5654 5655 5654 5650 5645
5670 5664 5659 5654 5648 5643 5637 5631 5626 5621 5616 5612 5607 5602 5598 5594 5593 5592 5590 5588 5589 5591 5595 5599 5604 5610 5615 5619 5622 5625 5628 5631 5634 5637 5639 5641 5643 5644 5646 5647 5648 5647 5644
5672 5666 5661 5656 5651 5647 5640 5634 5629 5623 5618 5612 5608 5604 5599 5595 5593 5591 5590 5589 5589 5590 5592 5596 5601 5607 5612 5616 5619 5622 5625 5627 5629 5631 5633 5634 5636 5637 5638 5638 5639 5639 5640
5673 5668 5664 5659 5654 5649 5643 5637 5631 5625 5620 5614 5609 5605 5601 5598 5595 5593 5592 5591 5591 5591 5592 5595 5600 5604 5608 5612 5615 5618 5620 5622 5625 5626 5627 5628 5630 5631 5631 5631 5630 5631 5630
5675 5671 5666 5661 5657 5652 5646 5641 5635 5629 5623 5619 5613 5608 5604 5601 5598 5596 5594 5594 5593 5594 5594 5596 5599 5602 5605 5608 5611 5613 5616 5618 5620 5621 5622 5623 5625 5625 5625 5626 5625 5625 5623
5677 5673 5669 5664 5660 5655 5651 5645 5641 5636 5630 5624 5619 5613 5609 5606 5604 5602 5599 5598 5597 5597 5597 5598 5600 5601 5603 5605 5608 5610 5612 5614 5615 5616 5618 5619 5619 5620 5620 5620 5620 5620 5619
5678 5674 5671 5666 5662 5657 5653 5650 5647 5642 5638 5634 5629 5622 5617 5614 5611 5609 5606 5605 5604 5603 5602 5601 5601 5602 5603 5605 5606 5607 5609 5610 5612 5613 5614 5615 5615 5616 5615 5615 5616 5616 5614
5681 5678 5674 5669 5664 5660 5656 5652 5649 5647 5643 5639 5635 5631 5626 5622 5618 5615 5612 5610 5609 5608 5605 5604 5604 5604 5604 5605 5606 5607 5608 5608 5610 5611 5611 5612 5612 5612 5612 5612 5611 5611 5610
5684 5681 5677 5672 5668 5663 5659 5656 5652 5648 5645 5642 5640 5637 5633 5629 5625 5621 5618 5615 5612 5610 5608 5607 5606 5606 5606 5607 5608 5608 5608 5608 5609 5609 5610 5610 5610 5610 5609 5609 5608 5608 5606
5685 5682 5679 5674 5670 5666 5662 5658 5654 5650 5647 5644 5642 5639 5638 5634 5630 5627 5623 5619 5617 5614 5612 5611 5610 5610 5609 5609 5610 5610 5610 5609 5609 5609 5609 5609 5609 5608 5607 5606 5606 5605 5604
5684 5684 5681 5675 5671 5666 5662 5659 5655 5652 5649 5647 5644 5643 5639 5635 5631 5629 5627 5624 5621 5619 5617 5616 5615 5614 5613 5613 5612 5612 5611 5611 5610 5610 5609 5609 5608 5608 5607 5606 5605 5604 5604
5679 5680 5680 5676 5671 5668 5664 5661 5659 5655 5652 5650 5650 5649 5644 5639 5637 5634 5631 5628 5626 5625 5623 5621 5619 5618 5617 5616 5615 5615 5614 5613 5612 5612 5611 5609 5608 5607 5607 5606 5605 5604 5603
5672 5674 5673 5673 5672 5669 5666 5663 5660 5657 5655 5653 5652 5650 5647 5642 5640 5638 5636 5634 5632 5630 5628 5626 5624 5623 5621 5620 5619 5618 5617 5616 5614 5613 5612 5611 5610 5608 5607 5606 5604 5603 5602
5660 5664 5665 5666 5666 5666 5664 5661 5659 5657 5655 5654 5653 5650 5647 5644 5643 5642 5640 5639 5637 5634 5632 5630 5628 5626 5625 5624 5623 5622 5620 5619 5619 5617 5615 5613 5611 5610 5608 5607 5605 5604 5603
5645 5650 5654 5656 5657 5657 5658 5658 5657 5656 5655 5653 5652 5651 5649 5647 5646 5645 5644 5642 5640 5638 5636 5633 5632 5630 5629 5627 5625 5624 5624 5623 5621 5620 5618 5616 5614 5612 5610 5608 5607 5606 5605
5627 5632 5638 5642 5645 5647 5649 5651 5652 5652 5652 5652 5651 5650 5649 5648 5647 5646 5645 5643 5641 5640 5638 5636 5634 5633 5631 5630 5628 5627 5625 5624 5622 5621 5619 5617 5615 5613 5611 5609 5607 5606 5604
5605 5611 5617 5622 5627 5632 5636 5639 5642 5645 5646 5648 5648 5648 5648 5647 5647 5646 5645 5643 5642 5641 5639 5638 5637 5635 5634 5632 5630 5628 5626 5624 5623 5621 5619 5617 5615 5613 5611 5609 5608 5606 5604